Location: Brno
(49.2000°N, 16.6333°E)
Time: 12:31:04
(UTC+01:00)

ISS - Pass Details

Date: 30 January 2019
Orbit: 403 x 411 km, 51.6° (Epoch: 22 February)

Event Time Altitude Azimuth Distance (km) Brightness Sun altitude
Rises 17:24:04 0° 253° (WSW) 2,327 2.8 -6.5°
Reaches altitude 10° 17:26:09 10° 254° (WSW) 1,470 0.8 -6.8°
Maximum altitude 17:29:27 81° 342° (NNW) 419 -3.8 -7.4°
Enters shadow 17:32:41 11° 71° (ENE) 1,441 -1.7 -7.9°
